COSMOS 2251 DEB, 34756

Orbit data source: Space-Track

COSMOS 2251 DEB, 34756 is space debris in LEO originally from a launch on Wed, 16 Jun 1993 UTC launched from the Plesetsk Missile And Space Complex (PKMTR). The debris from Iridium 33, an American commercial communications satellite, has been tracked extensively since its accidental collision with the defunct Russian satellite Cosmos 2251 in 2009. This event, occurring at high speed in low Earth orbit (LEO), generated thousands of pieces of space debris, significantly increasing the risk of further collisions. The Iridium 33 debris cloud has impacted space traffic management and orbital debris mitigation strategies, making it a subject of ongoing study in space situational awareness.

Loading next visibility...
Identifier
34756, 1993-036AAA
Orbit
LEO
Country
Flag of CISCIS
Related business
Manufacturer
Unknown
Mission
Spacecraft
Bus & Motor
Unknown
Mass
Unknown
Launch date (UTC)
1993-06-16 (33 years ago)
Launch vehicle
Unknown
Launch site
Plesetsk Missile And Space Complex (PKMTR)
Object type
Payload
Rocket body
Debris
Shape & HBR
Unknown shape, 0.1 m
Radar Cross Section
Medium (>0.1 m² and <1 m²)

Expand to show TLE details & history
Last TLE update: 12 hours ago

TLE from 12 hours ago
0 COSMOS 2251 DEB
1 34756U 93036AAA 26165.69238165  .00001130  00000-0  90814-3 0  9996
2 34756  74.0023 161.7231 0341748 358.8299   1.1978 13.67712899859365
Epoch: 2026-06-14T16:37Z
TLE epoch observation values (Epoch: 2026-06-14T16:37:01.774Z)
Latitude
0.00001°
Longitude
9.47624°
Altitude
757.93 km
Speed
7.602 km/s
True Right ascension
10h 46m 53s
True Declination
0° 00' 00"
Sunlit
Object was in daylight at epoch
Visualization orbit readout
Latitude
Unknown
Longitude
Unknown
Altitude
Unknown
Speed
Unknown
Apparent Right ascension
Unknown
Apparent Declination
Unknown
Sunlit
N/A
Visualization observer readout
Local Sidereal Time
15:39:55
Azimuth
Unknown
Elevation
Unknown
Doppler factor
Unknown
Orbital elements
Apogee altitude
1,257.826 km
Perigee altitude
753.158 km
Semi-major axis
7,383.629 km
Eccentricity
0.03417
Inclination
74.0023°
RAAN
161.7231°
Arg. of periapsis
358.8299°
True anomaly
1.28331°
Mean anomaly
1.1978°
Eccentric anomaly
1.24018°
Mean motion
3.42088 °/min
Orbital period
105.24 mins
BSTAR
0.00090814
Loading maneuver chart data...
Computing Atmospheric mass density...

Documentation

Showing up to 5 results
|